Regional Weather Roundup
Issued by NWS Cleveland, OH

Current Version | Previous Version | Text Only | Print | Product List | Glossary On
Versions: 1 2 3 4 5 6 7 8 9 10 11 12 13 14 15 16 17 18 19 20 21 22 23 24 25 26 27 28 29 30 31 32 33 34 35 36 37 38 39 40 41 42 43 44 45 46 47 48 49 50
000
ASUS41 KCLE 130710
RWRCLE
OHIO REGIONAL WEATHER ROUNDUP
NATIONAL WEATHER SERVICE WILMINGTON, OH
300 AM EDT THU MAY 13 2021

NOTE: "FAIR" INDICATES FEW OR NO CLOUDS BELOW 12,000 FEET WITH NO
SIGNIFICANT WEATHER AND/OR OBSTRUCTIONS TO VISIBILITY.

OHZ001>008-015>018-024>027-034-035-043-044-130800-
   NORTHWEST OHIO

CITY           SKY/WX    TMP DP  RH WIND       PRES   REMARKS
DEFIANCE       FAIR      40  34  79 CALM      30.38F
FINDLAY        FAIR      44  37  76 CALM      30.36F
TOLEDO EXPRESS FAIR      41  34  76 CALM      30.37F
TOLEDO EXEC    FAIR      44  35  70 CALM      30.38F
LIMA           FAIR      41  35  79 CALM      30.37S
$$

OHZ009>014-019>023-028>033-038-089-130800-
   NORTHEAST OHIO

CITY           SKY/WX    TMP DP  RH WIND       PRES   REMARKS
CLE-HOPKINS    FAIR      39  35  86 CALM      30.34S
CLE-LAKEFRONT  FAIR      49  38  65 CALM      30.35S
CUY CO. ARPT   FAIR      35  33  90 MISG      30.37R
LORAIN-ELYRIA  FAIR      37  35  92 CALM      30.36F
ASHTABULA      FAIR      35  32  88 CALM      30.35S
AKRON-CANTON   FAIR      41  33  73 N5        30.34S
WOOSTER        FAIR      37  33  85 NW5       30.35F
MANSFIELD      FAIR      41  33  73 CALM      30.36F
YOUNGSTOWN     FAIR      38  32  79 NW3       30.33S
$$

OHZ042-051>053-060>062-070>072-077>081-130800-
  SOUTHWEST OHIO

CITY           SKY/WX    TMP DP  RH WIND       PRES   REMARKS
CINC-COVINGTON FAIR      48  33  56 N6        30.35F
CINC-LUNKEN    FAIR      39  39 100 CALM      30.37F
HAMILTON       FAIR      40  38  93 CALM      30.38S
DAYTON         FAIR      43  31  62 NW3       30.38S
WRIGHT-PAT AFB FAIR      40  34  79 CALM      30.37S
DAYTON GENERAL FAIR      43  33  68 NE3       30.35F
WILMINGTON     FAIR      41  33  73 CALM      30.35F
$$

OHZ036-037-039>041-045>050-054>059-063>069-073>076-082>088-130800-
  CENTRAL AND SOUTHEAST OHIO

CITY           SKY/WX    TMP DP  RH WIND       PRES   REMARKS
COLUMBUS       FAIR      40  34  79 N3        30.35F
OSU AIRPORT    FAIR      43  33  68 N3        30.35F
BOLTON FIELD   FAIR      43  34  70 CALM      30.36S
RICKENBACK AFB FAIR      44  33  64 CALM      30.35F
NEWARK         FAIR      38  36  92 CALM      30.35S
MARION         FAIR      39  34  82 CALM      30.37S
LANCASTER      FAIR      36  33  89 CALM      30.35F
ZANESVILLE     FAIR      40  33  76 CALM      30.34F
NEW PHILLY     FAIR      38  34  85 CALM      30.35F
$$



USA.gov is the U.S. government's official web portal to all federal, state and local government web resources and services.